LEMD Weather Reports


time (UTC)temp
C
wind
direction
speed
KPH
gust
KPH
rain 1hr
cm
rain 24hr
cm
rain mn
cm
humidity
%
barometer
mb
20260506233005 11 340 4.8 0.0 0.00 0.00 0.00 62 1010.0
20260506230004 12 350 8.0 0.0 0.00 0.00 0.00 54 1010.0
20260506224503 12 350 8.0 0.0 0.00 0.00 0.00 54 1010.0
20260506221504 12 350 3.2 0.0 0.00 0.00 0.00 43 1010.0
20260506213004 12 50 4.8 0.0 0.00 0.00 0.00 40 1010.0
20260506211504 12 50 4.8 0.0 0.00 0.00 0.00 40 1010.0
20260506210005 13 40 3.2 0.0 0.00 0.00 0.00 44 1010.0
20260506204504 13 40 3.2 0.0 0.00 0.00 0.00 44 1010.0
20260506201504 16 0 3.2 0.0 0.00 0.00 0.00 33 1010.0
20260506194504 17 190 4.8 0.0 0.00 0.00 0.00 27 1010.0
20260506191504 18 0 1.6 0.0 0.00 0.00 0.00 24 1010.0
20260506184503 18 0 3.2 0.0 0.00 0.00 0.00 24 1010.0
20260506183005 20 0 4.8 0.0 0.00 0.00 0.00 26 1010.0
20260506180005 20 360 4.8 0.0 0.00 0.00 0.00 26 1010.0
20260506173004 20 250 4.8 0.0 0.00 0.00 0.00 22 1010.0
20260506171504 20 250 4.8 0.0 0.00 0.00 0.00 22 1010.0
20260506170004 20 200 4.8 0.0 0.00 0.00 0.00 26 1010.0
20260506163005 20 190 8.0 0.0 0.00 0.00 0.00 26 1011.0
20260506161504 20 190 8.0 0.0 0.00 0.00 0.00 26 1011.0
20260506154504 20 250 3.2 0.0 0.00 0.00 0.00 30 1011.0
20260506153004 18 230 8.0 0.0 0.00 0.00 0.00 29 1011.0
20260506151504 18 230 8.0 0.0 0.00 0.00 0.00 29 1011.0
20260506144504 18 60 4.8 0.0 0.00 0.00 0.00 34 1012.0
20260506143005 18 200 9.7 0.0 0.00 0.00 0.00 29 1012.0
20260506141504 18 200 9.7 0.0 0.00 0.00 0.00 29 1012.0
20260506140004 18 210 8.0 0.0 0.00 0.00 0.00 32 1012.0
20260506134504 18 210 8.0 0.0 0.00 0.00 0.00 32 1012.0
20260506133004 17 120 3.2 0.0 0.00 0.00 0.00 36 1013.0
20260506131504 17 120 3.2 0.0 0.00 0.00 0.00 36 1013.0
20260506130005 17 180 8.0 0.0 0.00 0.00 0.00 39 1013.0
20260506121504 17 60 4.8 0.0 0.00 0.00 0.00 39 1013.0
20260506120005 16 260 9.7 0.0 0.00 0.00 0.00 44 1013.0
20260506113004 15 10 9.7 0.0 0.00 0.00 0.00 44 1013.0
20260506104504 16 20 8.0 0.0 0.00 0.00 0.00 44 1014.0
20260506103004 15 20 4.8 0.0 0.00 0.00 0.00 47 1014.0
20260506100004 13 60 4.8 0.0 0.00 0.00 0.00 50 1014.0
20260506094504 13 60 4.8 0.0 0.00 0.00 0.00 50 1014.0
20260506093004 12 40 8.0 0.0 0.00 0.00 0.00 58 1014.0
20260506083003 10 340 8.0 0.0 0.00 0.00 0.00 71 1014.0
20260506081505 10 340 8.0 0.0 0.00 0.00 0.00 71 1014.0
20260506073004 7 0 3.2 0.0 0.00 0.00 0.00 75 1013.0
20260506044504 5 0 1.6 0.0 0.00 0.00 0.00 93 1013.0
20260506040005 7 0 3.2 0.0 0.00 0.00 0.00 75 1013.0
20260506034504 7 0 3.2 0.0 0.00 0.00 0.00 75 1013.0
20260506033005 7 90 4.8 0.0 0.00 0.00 0.00 70 1013.0
20260506031504 7 90 4.8 0.0 0.00 0.00 0.00 70 1013.0
20260506021504 7 0 1.6 0.0 0.00 0.00 0.00 70 1013.0
20260506014503 7 0 1.6 0.0 0.00 0.00 0.00 70 1013.0
20260506013005 8 0 1.6 0.0 0.00 0.00 0.00 66 1013.0
20260506010004 8 120 1.6 0.0 0.00 0.00 0.00 66 1014.0
20260506004504 8 120 1.6 0.0 0.00 0.00 0.00 66 1014.0
20260506001503 8 0 3.2 0.0 0.00 0.00 0.00 66 1013.0